Location: Coulsdon
(51.3000°N, 0.1167°W)
Time: 04:41:32
(UTC+00:00)

Daily predictions for brighter satellites

Satellite Brightness Start Highest point End
(mag) Time Altitude Azimuth Time Altitude Azimuth Time Altitude Azimuth
Cosmos 2333 Rocket 4.1 00:04:54 17° E 00:04:54 17° E 00:07:46 10° ENE
ALOS 2 4.3 00:06:52 27° WNW 00:06:52 27° WNW 00:09:23 10° NNW
USA 215 3.9 00:01:05 10° ENE 00:06:02 40° ESE 00:06:02 40° ESE
Cosmos 1447 Rocket 4.3 00:08:01 83° WSW 00:08:08 84° WNW 00:14:21 10° N
Cosmos 2360 Rocket 3.9 00:09:55 21° E 00:09:55 21° E 00:13:20 10° NE
Cosmos 2263 Rocket 3.3 00:06:50 10° NW 00:10:39 32° W 00:10:39 32° W
Lacrosse 4 Rocket 3.5 00:15:02 21° NE 00:15:02 21° NE 00:16:33 10° NE
Cosmos 1814 Rocket 4.3 00:14:29 60° NE 00:14:29 60° NE 00:18:45 10° NNE
Cosmos 2322 Rocket 3.4 00:19:32 31° E 00:19:32 31° E 00:23:40 10° NE
Cosmos 1891 Rocket 4.3 00:15:47 10° NNW 00:21:56 79° W 00:21:58 79° WSW
ATLAS 3B R/B 4.4 00:17:17 10° WNW 00:23:59 34° NNW 00:30:58 10° NE
NOSS 3-2 (C) 3.9 00:17:18 10° NW 00:24:35 85° SW 00:26:40 56° SSE
Cosmos 2034 Rocket 4.2 00:18:31 10° N 00:24:40 59° ENE 00:25:21 56° ESE
Cosmos 1513 Rocket 4.3 00:19:18 10° NNW 00:25:25 80° W 00:25:25 80° W
Cosmos 2219 Rocket 4.2 00:27:22 16° E 00:27:22 16° E 00:30:30 10° ENE
Cosmos 2058 Rocket 4.1 00:32:03 44° N 00:32:03 44° N 00:35:04 10° N
Cosmos 1844 3.7 00:27:54 10° NNW 00:33:42 78° ENE 00:33:46 78° ENE
SL-16 R/B 2.4 00:35:17 59° E 00:35:17 59° E 00:40:22 10° NE
H-2A R/B 3.4 00:38:46 10° N 00:41:37 32° NW 00:41:37 32° NW
USA 267 3.1 00:42:48 67° SSE 00:43:40 77° SSW 00:50:15 10° WNW
GEOS 3 Rocket 3.6 00:49:53 82° ENE 00:49:56 82° NE 00:55:16 10° NW
ADEOS II 4.4 00:49:01 10° ENE 00:51:23 13° E 00:53:12 11° ESE
Timation 2 Rocket 4.0 00:45:11 10° NNW 00:51:56 85° ENE 00:53:00 65° SE
Meteor 2-16 Rocket 4.5 00:52:36 63° ESE 00:53:06 66° E 00:59:11 10° NNE
Cosmos 2278 3.6 00:54:34 77° WNW 00:54:36 77° WNW 01:00:18 10° NNE
Nimbus 7 Rocket 4.3 00:48:54 10° NNE 00:54:47 77° ESE 00:55:02 76° SE
ATLAS 5 CENTAUR R/B 4.4 00:53:09 10° NW 00:55:55 17° N 00:59:03 10° NE
Cosmos 1125 Rocket 4.0 00:52:04 10° NNW 00:56:07 49° WNW 00:56:07 49° WNW
Meteor 2-21 Rocket 4.3 00:57:25 75° SSE 00:57:54 81° E 01:04:08 10° NNE
SL-16 R/B 4.3 00:53:05 10° ESE 00:58:06 27° NE 01:03:10 10° N
Helios 1A Rocket 4.5 01:00:30 29° NNW 01:00:30 29° NNW 01:02:37 10° NNW
Cosmos 1844 Rocket 2.9 00:53:20 10° NW 00:58:03 57° WNW 00:58:03 57° WNW
Cosmos 1980 Rocket 3.5 00:57:35 28° WNW 00:59:09 33° NW 01:04:15 10° NNE
Meteor 2-21 4.3 00:58:50 73° WSW 00:59:15 77° WNW 01:05:30 10° N
CZ-2D R/B 3.8 00:58:56 10° NE 01:03:12 24° E 01:04:20 22° ESE
Meteor 1-5 Rocket 4.4 00:57:42 10° N 01:03:25 67° ENE 01:04:15 59° ESE
Cosmos 2208 Rocket 4.0 01:09:23 78° E 01:09:23 78° E 01:14:44 10° NNE
MOZ.5/SAFIR/RUBIN 5/SL-8 3.9 01:12:10 70° NE 01:12:10 70° NE 01:16:34 10° NNW
Cosmos-2242 3.8 01:14:26 47° NNW 01:14:26 47° NNW 01:17:35 10° N
Cosmos 2237 4.2 01:13:16 69° W 01:13:37 72° WNW 01:19:21 10° NNE
Cosmos 1816 Rocket 4.3 01:16:05 69° WSW 01:16:40 75° WNW 01:22:49 10° N
Cosmos 2150 Rocket 4.3 01:18:51 10° NNW 01:23:01 52° WNW 01:23:01 52° WNW
USA 238 DEB 3.8 01:16:46 10° NW 01:24:00 68° SW 01:26:01 50° S
COSMOS 2428 4.4 01:22:41 20° ESE 01:24:05 22° ESE 01:28:19 10° NE
USA 238 3.8 01:16:52 10° NW 01:24:07 68° SW 01:26:14 49° S
Cosmos 2298 Rocket 4.3 01:19:25 10° NNW 01:23:54 54° WNW 01:23:54 54° WNW
Cosmos 489 Rocket 4.4 01:25:37 10° NNW 01:31:58 82° ENE 01:34:06 44° SSE
CZ-2C R/B 3.3 01:31:22 31° SE 01:33:45 52° ENE 01:38:58 10° N
Meteor 2-2 Rocket 4.2 01:33:31 67° WSW 01:34:08 74° WNW 01:40:05 10° N
Cosmos 1867 4.2 01:29:34 10° NW 01:35:00 56° NE 01:40:22 10° ESE
Cosmos 836 Rocket 4.4 01:36:30 78° WSW 01:36:46 82° WNW 01:42:06 10° NNE
NPP 4.1 01:33:13 10° NNE 01:38:30 53° E 01:39:31 47° SE
Tsikada Rocket 3.9 01:37:57 62° SSW 01:39:00 79° W 01:45:13 10° N
Cosmos 2221 2.8 01:40:19 61° ENE 01:40:19 61° ENE 01:44:12 10° NNE
Cosmos 2279 Rocket 4.0 01:34:33 10° N 01:40:49 76° ENE 01:42:58 43° SSE
Cosmos 158 Rocket 3.8 01:40:52 76° WNW 01:40:54 76° WNW 01:45:53 10° NNE
Cosmos 2333 4.1 01:42:17 63° SSE 01:42:57 71° ESE 01:48:33 10° NNE
Lacrosse 5 2.0 01:44:47 60° SE 01:44:47 60° SE 01:49:40 10° ENE
Resurs 1-4 Rocket 2.7 01:39:32 10° NNE 01:44:43 50° E 01:45:54 42° SE
Cosmos 1766 Rocket 3.6 01:40:59 10° N 01:44:56 73° N 01:44:56 73° N
Cosmos 2333 Rocket 2.0 01:46:53 68° SSW 01:47:40 89° ESE 01:53:22 10° NNE
ALOS 4.4 01:44:59 10° NE 01:48:17 19° E 01:50:36 14° SE
Cosmos 44 Rocket 3.9 01:48:57 45° SE 01:49:20 46° ESE 01:54:16 10° NE
USA 215 3.2 01:44:06 10° ENE 01:50:40 81° NNW 01:53:22 39° WSW
Lacrosse 4 Rocket 2.9 01:50:59 26° NW 01:51:11 26° NW 01:54:37 10° NNE
Cosmos 2360 Rocket 2.1 01:51:39 62° WSW 01:52:32 75° WNW 01:58:13 10° NNE
Cosmos 972 Rocket 4.4 01:51:41 47° SSE 01:52:48 56° ESE 01:57:49 10° NNE
Cosmos 1743 3.3 01:51:13 10° N 01:54:05 51° N 01:54:05 51° N
BlueWalker 3 2.7 01:58:05 48° E 01:58:05 48° E 02:00:59 10° E
Aureole 3 Rocket 4.2 01:52:57 10° NNW 01:56:48 33° WNW 01:56:48 33° WNW
Cosmos 2278 Rocket 3.1 01:54:54 10° NNW 02:00:25 48° NE 02:05:54 10° SE
Cosmos 2344 4.1 01:52:30 10° NW 02:00:34 77° NE 02:11:32 10° SE
Cosmos 773 Rocket 3.9 02:00:42 65° SW 02:01:29 83° WNW 02:06:48 10° NNE
IRIDIUM 106 4.4 01:56:56 10° N 02:02:11 75° E 02:03:43 46° SSE
Cosmos 2322 Rocket 2.6 02:01:19 44° W 02:02:33 53° NW 02:08:04 10° NNE
NOSS 3-4 (A) 3.2 02:03:50 56° SSW 02:05:03 78° SE 02:11:11 10° NE
NOSS 3-4 (C) 3.2 02:03:53 56° SSW 02:05:06 77° SE 02:11:15 10° NE
IDEFIX/ARIANE 42P 2.5 02:00:12 10° NNE 02:05:25 86° ESE 02:06:30 58° S
Cosmos 1536 3.7 02:06:08 10° N 02:09:53 43° ENE 02:11:04 33° ESE
Okean 3 Rocket 3.5 02:05:46 10° N 02:10:21 89° E 02:10:57 67° SSE
Cosmos 2219 Rocket 2.1 02:09:03 55° SSW 02:10:22 84° ESE 02:15:59 10° NNE
MSX 3.8 02:06:24 10° NNE 02:12:14 83° ESE 02:14:09 45° S
Gbstr 26 Del rocket 4.0 02:13:49 31° SE 02:13:49 31° SE 02:16:43 10° E
H-2A R/B 3.5 02:09:50 10° N 02:13:48 60° WNW 02:13:48 60° WNW
ATLAS 3B R/B 4.5 02:09:52 10° NW 02:16:49 36° NNE 02:23:54 10° E
COBE Rocket 3.7 02:13:21 10° NNE 02:18:05 81° ESE 02:19:04 55° S
GP-B 4.2 02:14:06 10° NNE 02:18:18 41° E 02:20:36 23° SE
SL-16 R/B 3.4 02:17:07 25° W 02:19:15 32° NW 02:24:20 10° NNE
Meteor 1-28 Rocket 3.1 02:20:07 72° ESE 02:20:18 74° ENE 02:23:58 10° N
NOSS 2-2 (E) 3.9 02:19:17 10° NW 02:23:28 78° NE 02:29:22 10° SE
BREEZE-M DEB (TANK) 2.8 02:27:08 68° SSW 02:27:16 69° S 02:34:18 10° E
USA 267 4.5 02:30:04 22° W 02:30:04 22° W 02:32:55 10° WNW
Cosmos 1726 2.1 02:24:29 10° N 02:27:31 62° ENE 02:27:31 62° ENE
Okean 1 4.4 02:29:45 27° SE 02:31:08 38° E 02:34:41 10° NNE
ADEOS II 2.1 02:26:38 10° NNE 02:31:55 77° ESE 02:34:06 36° S
FENGYUN 3A 3.8 02:29:05 10° NNE 02:34:32 71° ESE 02:37:10 31° S
Meteor 1-14 Rocket 4.3 02:31:43 10° NNW 02:37:05 53° W 02:38:42 40° SW
Cosmos 1461 2.7 02:33:42 10° NW 02:37:35 76° NE 02:41:24 10° SE
NOSS 2-2 (D) 3.9 02:33:45 10° NW 02:37:51 75° NE 02:43:36 10° SE
ATLAS 5 CENTAUR R/B 3.6 02:37:01 10° NW 02:41:04 32° NNE 02:45:57 10° E
SL-16 R/B 2.4 02:36:39 20° S 02:41:09 75° WSW 02:47:25 10° NNW
Meteor 2-6 Rocket 4.3 02:38:50 37° SSW 02:41:16 71° WNW 02:47:14 10° N
NOSS 2-3 (E) 4.4 02:37:23 10° NW 02:42:49 90° NE 02:50:19 10° SE
RESURS DK-1 3.3 02:41:53 30° SSE 02:43:12 40° ESE 02:47:01 10° NE
CZ-2D R/B 2.2 02:38:21 10° N 02:43:38 63° WNW 02:45:38 37° SW
Cosmos 1151 Rocket 4.5 02:40:50 14° SSE 02:44:01 34° E 02:47:55 10° NNE
Envisat 4.5 02:44:22 10° NNE 02:48:56 33° E 02:53:29 10° SSE
Cosmos 1842 Rocket 3.7 02:50:51 43° SW 02:51:56 55° WNW 02:56:19 10° N
Cosmos 1408 Rocket 3.5 02:48:23 10° NNW 02:52:38 60° W 02:53:56 41° SSW
IRAS Rocket 4.2 02:51:45 10° NNE 02:57:25 82° WNW 03:00:33 28° SSW
Cosmos 1975 4.4 02:55:03 10° N 02:58:35 33° ENE 03:02:06 10° SE
Cosmos 375 4.2 02:56:02 10° NW 02:59:50 82° SW 03:04:22 10° SE
Cosmos 1943 Rocket 2.4 02:55:20 10° NNW 03:01:02 74° ENE 03:06:42 10° SE
Meteor 1-27 Rocket 4.0 02:56:58 18° S 03:01:21 72° E 03:07:03 10° NNE
COSMOS 2428 2.7 03:04:40 29° SW 03:07:43 77° WNW 03:13:28 10° NNE
Cosmos 1805 Rocket 3.4 03:04:47 10° NNW 03:09:06 67° W 03:11:52 21° S
CZ-4 R/B 4.4 03:04:38 10° NNE 03:09:21 54° E 03:13:29 13° S
Meteor 1-10 Rocket 4.3 03:06:03 25° SSW 03:09:37 70° WNW 03:15:35 10° N
Cosmos 1500 Rocket 3.7 03:05:21 10° NNW 03:09:43 55° W 03:12:00 26° SSW
UNK 3.7 03:07:30 21° S 03:10:25 59° WSW 03:15:00 10° NNW
Meteor 1-11 Rocket 3.8 03:06:57 10° NNW 03:12:24 54° W 03:16:27 17° SSW
Cosmos 1666 Rocket 4.4 03:08:16 10° N 03:12:39 51° ENE 03:16:59 10° SSE
CZ-2C R/B 3.6 03:12:51 26° WSW 03:14:15 29° W 03:18:56 10° NNW
Cosmos 2237 Rocket 2.7 03:11:13 17° S 03:15:34 58° ESE 03:21:09 10° NE
Cosmos 1980 4.0 03:12:33 18° S 03:16:47 62° ESE 03:22:23 10° NE
AQUA 4.1 03:12:37 10° N 03:17:13 52° WNW 03:19:38 26° SW
CZ-2C R/B 3.3 03:12:38 10° N 03:17:31 51° WNW 03:20:25 24° SW
Cosmos 2221 4.3 03:16:57 16° WNW 03:17:48 17° WNW 03:20:34 10° NNW
Cosmos 1867 4.1 03:13:27 10° NW 03:18:26 36° WSW 03:23:21 10° S
Cosmos 2369 Rocket 4.2 03:13:53 10° NNW 03:18:52 31° NE 03:23:48 10° ESE
Intercosmos 25 Rocket 3.9 03:16:38 10° N 03:19:52 54° ENE 03:24:05 10° SSE
Cosmos 2322 4.1 03:20:27 23° WSW 03:23:47 52° NW 03:29:24 10° NNE
Resurs 1-4 Rocket 3.1 03:19:42 10° N 03:24:19 31° WNW 03:26:58 20° WSW
Meteor 2-9 Rocket 4.2 03:19:36 10° NNW 03:24:51 56° W 03:30:10 10° S
NOSS 2-2 (C) 3.9 03:20:51 10° NW 03:25:05 57° SW 03:30:58 10° SSE
ALOS 2.3 03:21:20 10° N 03:25:56 64° WNW 03:28:56 21° SSW
Lacrosse 5 2.4 03:23:58 17° W 03:27:44 55° NNW 03:32:47 10° ENE
Cosmos 2195 Rocket 4.5 03:23:07 15° SSW 03:28:30 74° WNW 03:34:47 10° N
Cosmos 44 Rocket 4.1 03:27:36 20° W 03:30:55 43° NW 03:35:51 10° NE
Cosmos 1733 3.2 03:27:46 10° NNW 03:31:17 50° W 03:33:43 18° SSW
Cosmos 2333 Rocket 3.7 03:28:52 13° W 03:32:43 24° NW 03:37:18 10° NNE
USA 215 3.8 03:27:03 10° ENE 03:33:24 55° N 03:39:45 10° W
Nadezhda 4 Rocket 4.4 03:30:19 20° SW 03:34:21 45° WNW 03:40:13 10° N
BlueWalker 3 2.2 03:32:32 16° W 03:35:20 45° SSW 03:39:00 10° SE
Sich 1 3.5 03:31:32 10° NNW 03:35:25 37° W 03:37:58 19° SSW
YAOGAN 6 3.3 03:33:03 10° NNE 03:36:14 46° E 03:39:24 10° S
IRS-1D 4.2 03:32:11 10° NNE 03:37:11 56° E 03:42:15 10° S
Cosmos 2360 Rocket 3.9 03:33:23 10° W 03:37:31 21° NW 03:41:46 10° NNE
NOSS 0 Rocket 3.9 03:36:15 17° SW 03:41:05 77° NW 03:47:17 10° NNE
Cosmos 1743 Rocket 4.3 03:39:47 10° NNW 03:43:40 33° W 03:46:31 16° SSW
USA 290 3.9 03:40:46 10° N 03:43:41 36° ENE 03:46:34 10° SE
IDEFIX/ARIANE 42P 4.2 03:40:45 10° N 03:44:20 19° NW 03:47:15 12° W
Cosmos 2278 Rocket 2.7 03:39:13 10° NW 03:44:23 36° WSW 03:49:31 10° S
Cosmos 1536 4.2 03:42:52 10° NW 03:45:35 18° W 03:46:21 18° WSW
Cosmos 1328 Rocket 4.0 03:42:05 10° S 03:46:26 64° E 03:50:51 10° NNE
NOSS 3-1 (C) 4.1 03:39:24 10° NW 03:46:27 82° NE 03:55:08 10° SE
Cosmos 1340 Rocket 2.8 03:43:19 10° S 03:47:09 80° ESE 03:51:03 10° NNE
Cosmos 2322 Rocket 4.2 03:44:22 10° WNW 03:47:56 17° NNW 03:51:31 10° N
Cosmos 1805 3.2 03:46:33 10° NNW 03:50:11 56° W 03:53:49 10° S
SWAS 4.5 03:46:16 10° NW 03:50:23 54° WSW 03:54:30 10° SSE
Cosmos 1633 Rocket 3.0 03:46:38 10° NNW 03:50:59 84° W 03:55:20 10° S
Cosmos 1680 Rocket 3.6 03:47:11 10° SSW 03:52:29 81° ESE 03:57:50 10° NNE
Cosmos 1553 Rocket 4.0 03:47:31 10° NNW 03:53:52 79° W 04:00:03 10° S
Cosmos 2219 Rocket 3.6 03:50:45 11° W 03:55:00 25° NW 03:59:36 10° NNE
GP-B 4.3 03:51:42 10° NNW 03:55:18 25° WNW 03:57:55 15° WSW
NOSS 3-4 (A) 4.4 03:51:15 10° W 03:56:28 37° NNW 04:02:26 10° NE
NOSS 3-4 (C) 4.4 03:51:18 11° W 03:56:31 37° NNW 04:02:29 10° NE
Cosmos 1420 Rocket 4.1 03:52:21 10° NNW 03:57:30 57° WSW 04:02:38 10° S
Gbstr 26 Del rocket 2.7 03:56:05 15° WSW 03:59:28 85° SSE 04:03:13 10° E
Cosmos 2056 Rocket 3.6 03:55:51 10° NNW 04:01:10 63° WSW 04:06:30 10° S
METEOR-M 4.2 03:56:29 10° N 04:01:48 67° WNW 04:07:05 10° SSW
SL-16 R/B 3.2 04:00:39 10° S 04:06:01 47° ESE 04:11:25 10° NE
EO 1 Delta rocket 4.4 04:01:35 10° N 04:06:03 40° WNW 04:10:22 10° SW
Cosmos 1452 Rocket 4.4 04:03:03 10° NNW 04:08:15 55° ENE 04:13:24 10° SE
ATLAS 3B R/B 3.5 04:01:10 10° NW 04:08:56 68° NE 04:16:42 10° ESE
CZ-2C R/B 2.5 04:04:32 10° NNE 04:09:43 73° WNW 04:14:51 10° SSW
Cosmos 1656 Rocket 4.0 04:04:54 10° NNW 04:10:21 71° ENE 04:15:45 10° SE
PAYLOAD A 3.9 04:05:53 10° NNE 04:10:55 80° WNW 04:15:43 10° SSW
ADEOS II 3.6 04:07:07 10° N 04:11:00 21° NW 04:14:52 10° WSW
Cosmos 1624 Rocket 4.2 04:08:31 10° NNW 04:13:35 50° WSW 04:18:36 10° S
Cosmos 1461 4.3 04:13:09 10° WNW 04:15:21 15° WSW 04:17:32 10° SSW
Cosmos 1092 Rocket 4.5 04:11:35 10° SW 04:17:19 41° WNW 04:23:07 10° N
Iridium 51 3.8 04:14:32 10° S 04:17:53 86° W 04:21:15 10° N
RESURS DK-1 3.5 04:17:30 10° WSW 04:21:04 29° NW 04:24:41 10° NNE
Cosmos 1151 Rocket 4.0 04:17:46 10° SW 04:21:31 29° WNW 04:25:20 10° N
Meteor 2-12 Rocket 4.4 04:15:36 10° SSW 04:21:39 77° WNW 04:27:45 10° N
CZ-2D R/B 4.1 04:20:04 10° NNW 04:22:41 14° NW 04:25:20 10° W
ATLAS 5 CENTAUR R/B 2.0 04:20:36 10° NW 04:25:23 74° SW 04:31:21 10° SE
SL-16 R/B 4.1 04:22:23 10° WSW 04:25:49 15° W 04:29:16 10° NW
Cosmos 1939 Rocket 4.3 04:23:33 10° NNE 04:27:06 38° E 04:30:38 10° SSE
Envisat 3.5 04:23:16 10° N 04:28:02 42° WNW 04:32:47 10° SW
Cosmos 1766 3.1 04:26:15 10° NNW 04:29:54 60° W 04:33:32 10° S
Cosmos 921 Rocket 3.0 04:28:14 10° SSW 04:32:29 68° WNW 04:36:50 10° NNE
Cosmos 1674 3.2 04:29:46 10° S 04:33:08 55° E 04:36:31 10° NNE
Cosmos 1975 3.9 04:31:16 10° NW 04:34:23 24° W 04:37:29 10° SW
Cosmos 1869 Rocket 4.4 04:30:36 10° N 04:34:55 57° ENE 04:39:11 10° SSE
Cosmos 1515 Rocket 3.6 04:31:25 10° S 04:35:53 87° WNW 04:40:21 10° N
